EW8542 Tinglev DK current weather conditions

sailwx.info

Wind from 113 at 10 knots gusting 14

Air temperature 3.3° C
Dewpoint 0.9° C

Last reported at 2019-Dec-13 11:56 UTC.
Time now 2019-Dec-13 12:36 UTC

Location: N 54°56' E 009°15'.
View on Google Maps.

See reports from other nearby stations

  
Tides and Currents Weather Stations Pressure Air Temp Water Temp Dewpoint Dewpoint Depression Visibility Wind Speed Wind Dir Waves Ship Positions
date/time (UTC)wind fromknots sea level pressurealtimeterstation pressurevisibilityair tempwater tempwave heightnotes
2019-Dec-13 11:56 113 10 gusting 14 3.3
2019-Dec-13 11:51 108 10 gusting 14 2.8
2019-Dec-13 11:41 117 8 gusting 13 2.8
2019-Dec-13 11:36 111 8 gusting 13 2.8
2019-Dec-13 11:26 110 8 gusting 13 2.8
2019-Dec-13 11:21 118 8 gusting 15 2.8
2019-Dec-13 11:11 112 8 gusting 15 2.8
2019-Dec-13 11:06 112 8 gusting 13 2.8
2019-Dec-13 10:56 107 9 gusting 14 2.8
2019-Dec-13 10:51 106 10 gusting 14 2.8
2019-Dec-13 10:41 100 10 gusting 14 2.8
2019-Dec-13 10:36 104 10 gusting 14 2.8
2019-Dec-13 10:26 099 10 gusting 14 2.8
2019-Dec-13 10:21 104 10 gusting 14 2.8
2019-Dec-13 10:11 113 10 gusting 14 2.8
2019-Dec-13 10:06 114 11 gusting 15 2.8
2019-Dec-13 09:56 112 8 gusting 15 2.2
2019-Dec-13 09:51 108 9 gusting 15 2.2
2019-Dec-13 09:41 106 10 gusting 15 2.2
2019-Dec-13 09:36 104 9 gusting 15 2.2
2019-Dec-13 09:26 111 9 gusting 14 1.7
2019-Dec-13 09:21 107 10 gusting 15 1.7
2019-Dec-13 09:11 107 11 gusting 15 1.7
2019-Dec-13 09:06 111 11 gusting 15 1.7
2019-Dec-13 08:56 115 11 gusting 14 1.7
2019-Dec-13 08:51 119 11 gusting 14 1.1
2019-Dec-13 08:41 114 10 gusting 14 1.1
2019-Dec-13 08:36 112 9 gusting 14 1.1
2019-Dec-13 08:26 116 8 gusting 14 1.1
2019-Dec-13 08:21 120 10 gusting 15 1.1
2019-Dec-13 08:11 113 10 gusting 17 1.1
2019-Dec-13 08:06 112 10 gusting 17 1.1
2019-Dec-13 07:56 113 10 gusting 15 1.1
2019-Dec-13 07:51 113 11 gusting 15 1.1
2019-Dec-13 07:41 117 10 gusting 13 1.1
2019-Dec-13 07:36 115 10 gusting 13 1.1
2019-Dec-13 07:26 112 11 gusting 17 1.1
2019-Dec-13 07:21 117 10 gusting 17 1.1
2019-Dec-13 07:11 117 10 gusting 11 1.1
2019-Dec-13 07:06 116 10 gusting 12 1.1
2019-Dec-13 06:56 117 10 gusting 13 1.1
2019-Dec-13 06:51 113 11 gusting 13 1.1
2019-Dec-13 06:46 116 11 gusting 13 1.1
2019-Dec-13 06:41 116 11 gusting 14 1.1
2019-Dec-13 06:36 114 9 gusting 14 1.1
2019-Dec-13 06:26 114 9 gusting 13 1.1
2019-Dec-13 06:21 118 10 gusting 13 1.1
2019-Dec-13 06:16 116 10 gusting 13 1.1
2019-Dec-13 06:11 114 10 gusting 13 1.1
2019-Dec-13 06:06 112 10 gusting 13 1.1
2019-Dec-13 05:56 112 11 gusting 14 1.1
2019-Dec-13 05:51 111 12 gusting 14 1.1
2019-Dec-13 05:41 107 10 gusting 14 1.1
2019-Dec-13 05:36 112 11 gusting 17 1.1
2019-Dec-13 05:26 116 12 gusting 17 1.1
2019-Dec-13 05:21 116 12 gusting 15 1.1
2019-Dec-13 05:11 112 11 gusting 17 1.7
2019-Dec-13 05:06 117 11 gusting 17 1.7
2019-Dec-13 04:56 118 10 gusting 15 1.7
2019-Dec-13 04:51 114 10 gusting 15 1.7
2019-Dec-13 04:41 115 10 gusting 17 1.7
2019-Dec-13 04:36 114 10 gusting 17 1.7
2019-Dec-13 04:26 117 11 gusting 19 1.7
2019-Dec-13 04:21 117 11 gusting 19 1.7
2019-Dec-13 04:11 114 10 gusting 15 1.7
2019-Dec-13 04:06 115 10 gusting 15 1.7
2019-Dec-13 03:56 114 11 gusting 14 1.7
2019-Dec-13 03:51 115 11 gusting 14 1.7
2019-Dec-13 03:41 114 10 gusting 14 1.7
2019-Dec-13 03:36 109 10 gusting 13 1.7
2019-Dec-13 03:26 115 9 gusting 13 1.7
2019-Dec-13 03:21 122 10 gusting 13 1.7
2019-Dec-13 03:11 117 11 gusting 14 1.7
2019-Dec-13 03:06 118 10 gusting 17 1.7
2019-Dec-13 02:56 128 10 gusting 17 1.7
2019-Dec-13 02:51 126 11 gusting 14 1.7
2019-Dec-13 02:46 125 11 gusting 14 1.7
2019-Dec-13 02:41 125 11 gusting 14 1.7
2019-Dec-13 02:36 127 10 gusting 14 1.7
2019-Dec-13 02:26 123 8 gusting 14 1.7
2019-Dec-13 02:21 122 8 gusting 13 1.7
2019-Dec-13 02:11 124 8 gusting 12 1.7
2019-Dec-13 02:06 125 8 gusting 13 1.7
2019-Dec-13 01:56 126 10 gusting 13 1.7
2019-Dec-13 01:51 124 9 gusting 15 1.7
2019-Dec-13 01:41 125 8 gusting 15 1.7
2019-Dec-13 01:36 124 7 gusting 15 1.7
2019-Dec-13 01:26 124 8 gusting 12 1.7
2019-Dec-13 01:21 135 9 gusting 13 1.7
2019-Dec-13 01:11 126 8 gusting 13 1.7
2019-Dec-13 01:06 127 7 gusting 13 1.7
2019-Dec-13 00:56 127 7 gusting 13 1.7
2019-Dec-13 00:51 130 7 gusting 13 1.7
2019-Dec-13 00:41 128 8 gusting 13 1.7
2019-Dec-13 00:37 126 7 gusting 13 1.7
2019-Dec-13 00:26 128 7 gusting 12 1.7
2019-Dec-13 00:11 126 7 gusting 15 1.7
2019-Dec-13 00:06 130 8 gusting 15 1.7
2019-Dec-12 23:56 130 8 gusting 13 1.7
2019-Dec-12 23:51 137 8 gusting 13 1.7
2019-Dec-12 23:41 129 7 gusting 11 1.7
2019-Dec-12 23:36 125 7 gusting 11 1.7
2019-Dec-12 23:26 128 6 gusting 11 1.7
2019-Dec-12 23:21 136 6 gusting 10 1.7
2019-Dec-12 23:16 133 6 gusting 10 1.7
2019-Dec-12 23:11 134 5 gusting 10 1.7
2019-Dec-12 23:06 142 6 gusting 10 1.7
2019-Dec-12 22:56 134 5 gusting 10 1.7
2019-Dec-12 22:51 134 5 gusting 10 1.7
2019-Dec-12 22:41 140 6 gusting 10 1.7
2019-Dec-12 22:36 138 6 gusting 10 1.7
2019-Dec-12 22:26 140 6 gusting 10 1.7
2019-Dec-12 22:21 139 6 gusting 13 1.7
2019-Dec-12 22:11 140 7 gusting 13 1.7
2019-Dec-12 22:06 140 7 gusting 13 1.7
2019-Dec-12 21:56 144 6 gusting 11 1.7
2019-Dec-12 21:51 138 6 gusting 12 1.7
2019-Dec-12 21:41 140 5 gusting 8 1.7
2019-Dec-12 21:36 139 5 gusting 8 1.7
2019-Dec-12 21:26 143 5 gusting 7 1.7
2019-Dec-12 21:21 133 5 gusting 8 1.7
2019-Dec-12 21:11 140 5 gusting 8 1.7
2019-Dec-12 21:06 143 5 gusting 8 1.7
2019-Dec-12 20:56 142 6 gusting 7 1.7
2019-Dec-12 20:51 131 5 gusting 7 1.1
2019-Dec-12 20:41 135 4 gusting 6 1.1
2019-Dec-12 20:36 133 4 gusting 6 1.1
2019-Dec-12 20:26 128 4 gusting 6 1.1
2019-Dec-12 20:21 128 4 gusting 6 1.1
2019-Dec-12 20:16 130 4 gusting 6 1.1
2019-Dec-12 20:11 132 3 gusting 6 1.1
2019-Dec-12 20:06 132 2 gusting 6 1.1
2019-Dec-12 19:56 134 2 gusting 4 1.1
2019-Dec-12 19:51 137 2 gusting 4 1.1
2019-Dec-12 19:46 136 2 gusting 4 1.1
2019-Dec-12 19:41 136 2 gusting 6 1.1
2019-Dec-12 19:36 139 2 gusting 6 1.1
2019-Dec-12 19:26 145 2 gusting 4 1.7
2019-Dec-12 19:21 146 2 gusting 4 1.7
2019-Dec-12 19:16 148 2 gusting 4 1.7
2019-Dec-12 19:11 149 2 gusting 5 1.7
2019-Dec-12 19:06 153 2 gusting 5 1.7
2019-Dec-12 18:56 150 2 gusting 4 2.2
2019-Dec-12 18:51 152 3 gusting 6 2.2
2019-Dec-12 18:41 163 4 gusting 6 2.2
2019-Dec-12 18:36 161 4 gusting 6 2.2
2019-Dec-12 18:26 163 5 gusting 10 2.2
2019-Dec-12 18:21 166 6 gusting 10 2.2
2019-Dec-12 18:11 160 4 gusting 10 2.8
2019-Dec-12 18:06 159 5 gusting 6 2.8
2019-Dec-12 17:56 163 5 gusting 7 2.8
2019-Dec-12 17:51 159 5 gusting 8 2.8
2019-Dec-12 17:41 172 5 gusting 8 2.8
2019-Dec-12 17:36 174 6 gusting 8 2.8
2019-Dec-12 17:26 173 6 gusting 10 2.8
2019-Dec-12 17:21 175 6 gusting 10 2.8
2019-Dec-12 17:11 172 5 gusting 7 3.3
2019-Dec-12 17:06 165 5 gusting 6 3.3
2019-Dec-12 16:56 169 6 gusting 8 3.3
2019-Dec-12 16:51 167 5 gusting 8 3.3
2019-Dec-12 16:41 183 4 gusting 6 3.3
2019-Dec-12 16:36 181 4 gusting 6 3.3
2019-Dec-12 16:26 180 5 gusting 6 3.9
2019-Dec-12 16:21 177 5 gusting 10 3.9
2019-Dec-12 16:11 184 6 gusting 10 4.4
2019-Dec-12 16:06 187 6 gusting 10 4.4
2019-Dec-12 15:56 183 4 gusting 10 4.4
2019-Dec-12 15:51 179 4 gusting 6 4.4
2019-Dec-12 15:41 193 4 gusting 8 4.4
2019-Dec-12 15:36 202 4 gusting 8 4.4
2019-Dec-12 15:26 200 5 gusting 10 4.4
2019-Dec-12 15:21 195 5 gusting 10 4.4
2019-Dec-12 15:11 197 4 gusting 7 4.4
2019-Dec-12 15:06 205 4 gusting 8 4.4
2019-Dec-12 14:56 201 5 gusting 8 4.4
2019-Dec-12 14:51 198 4 gusting 8 4.4
2019-Dec-12 14:41 196 2 gusting 6 4.4
2019-Dec-12 14:36 198 2 gusting 6 4.4
2019-Dec-12 14:26 191 1 gusting 6 4.4
2019-Dec-12 14:21 192 0 gusting 2 4.4
2019-Dec-12 14:11 236 1 gusting 1 4.4
2019-Dec-12 14:06 236 1 gusting 2 4.4
2019-Dec-12 13:56 224 2 gusting 4 4.4
2019-Dec-12 13:51 219 3 gusting 7 4.4
2019-Dec-12 13:41 208 4 gusting 7 4.4
2019-Dec-12 13:36 206 4 gusting 7 4.4
2019-Dec-12 13:26 206 5 gusting 7 4.4
2019-Dec-12 13:21 204 5 gusting 8 5.0
2019-Dec-12 13:11 202 5 gusting 8 5.0
2019-Dec-12 13:06 198 5 gusting 8 5.0
2019-Dec-12 12:56 210 4 gusting 8 5.0
2019-Dec-12 12:51 214 4 gusting 8 5.0
2019-Dec-12 12:41 211 5 gusting 8 5.0
2019-Dec-12 12:36 215 5 gusting 10 5.0
2019-Dec-12 12:26 211 6 gusting 10 5.0
2019-Dec-12 12:21 204 6 gusting 10 5.0
2019-Dec-12 12:11 205 4 gusting 7 5.0
2019-Dec-12 12:07 197 4 gusting 10 5.0
2019-Dec-12 11:56 205 6 gusting 10 5.0
2019-Dec-12 11:51 209 6 gusting 11 5.0
2019-Dec-12 11:41 217 5 gusting 11 5.6
2019-Dec-12 11:36 211 4 gusting 11 5.6
2019-Dec-12 11:26 220 4 gusting 6 5.6
2019-Dec-12 11:21 211 5 gusting 6 5.6
2019-Dec-12 11:11 196 4 gusting 6 5.0
2019-Dec-12 11:06 197 4 gusting 10 5.0
2019-Dec-12 10:56 207 5 gusting 10 5.0
2019-Dec-12 10:51 208 5 gusting 7 5.0
2019-Dec-12 10:46 205 4 gusting 6 5.0
2019-Dec-12 10:41 200 5 gusting 11 5.0
2019-Dec-12 10:36 197 6 gusting 11 5.0
2019-Dec-12 10:26 192 5 gusting 11 5.0
2019-Dec-12 10:21 183 5 gusting 10 5.0
2019-Dec-12 10:11 186 7 gusting 11 4.4
2019-Dec-12 10:06 184 6 gusting 11 4.4
2019-Dec-12 09:56 175 5 gusting 11 4.4
2019-Dec-12 09:51 186 5 gusting 8 4.4
2019-Dec-12 09:41 178 6 gusting 8 4.4
2019-Dec-12 09:36 176 6 gusting 13 4.4
2019-Dec-12 09:26 171 6 gusting 13 4.4
2019-Dec-12 09:21 162 6 gusting 10 4.4
2019-Dec-12 09:11 165 6 gusting 10 4.4
2019-Dec-12 09:06 163 5 gusting 10 4.4
2019-Dec-12 08:56 165 6 gusting 8 4.4
2019-Dec-12 08:51 172 6 gusting 10 4.4
2019-Dec-12 08:41 164 6 gusting 10 4.4
2019-Dec-12 08:36 161 6 gusting 10 4.4
2019-Dec-12 08:26 161 5 gusting 10 4.4
2019-Dec-12 08:21 162 5 gusting 10 3.9
2019-Dec-12 08:11 159 5 gusting 7 3.9
2019-Dec-12 08:06 157 4 gusting 8 3.9
2019-Dec-12 07:56 172 4 gusting 8 3.9
2019-Dec-12 07:51 178 5 gusting 7 3.9
2019-Dec-12 07:41 164 5 gusting 7 3.9
2019-Dec-12 07:36 167 5 gusting 8 3.9
2019-Dec-12 07:26 173 6 gusting 10 3.9
2019-Dec-12 07:21 169 5 gusting 11 3.9
2019-Dec-12 07:06 170 5 gusting 11 3.9
2019-Dec-12 06:56 165 5 gusting 10 3.9
2019-Dec-12 06:41 161 4 gusting 6 3.9
2019-Dec-12 06:36 162 4 gusting 7 3.9
2019-Dec-12 06:26 173 4 gusting 7 3.9
2019-Dec-12 06:21 181 4 gusting 6 3.9
2019-Dec-12 06:11 176 5 gusting 10 3.9
2019-Dec-12 06:06 172 4 gusting 10 4.4
2019-Dec-12 05:56 170 4 gusting 6 4.4
2019-Dec-12 05:51 178 5 gusting 7 4.4
2019-Dec-12 05:41 180 5 gusting 7 4.4
2019-Dec-12 05:36 171 4 gusting 7 4.4
2019-Dec-12 05:26 176 4 gusting 6 4.4
2019-Dec-12 05:21 192 3 gusting 6 4.4
2019-Dec-12 05:16 194 2 gusting 6 4.4
2019-Dec-12 05:11 191 2 gusting 6 4.4
2019-Dec-12 05:06 187 2 gusting 8 4.4
2019-Dec-12 04:56 180 2 gusting 8 4.4
2019-Dec-12 04:51 188 2 gusting 6 4.4
2019-Dec-12 04:46 187 1 gusting 6 4.4
2019-Dec-12 04:41 189 1 gusting 6 4.4
2019-Dec-12 04:36 185 2 gusting 6 4.4
2019-Dec-12 04:26 189 2 gusting 4 3.9
2019-Dec-12 04:21 183 1 gusting 4 3.9
2019-Dec-12 04:11 176 2 gusting 2 3.9
2019-Dec-12 04:06 176 2 gusting 2 3.9
2019-Dec-12 03:56 184 1 gusting 2 3.9
2019-Dec-12 03:51 190 1 gusting 2 3.9
2019-Dec-12 03:46 192 1 gusting 2 3.9
2019-Dec-12 03:41 189 1 gusting 4 3.9
2019-Dec-12 03:36 181 2 gusting 4 3.9
2019-Dec-12 03:26 171 2 gusting 4 3.9
2019-Dec-12 03:21 172 1 gusting 4 3.9
2019-Dec-12 03:16 172 1 gusting 4 3.9
2019-Dec-12 03:11 172 1 gusting 2 3.9
2019-Dec-12 03:06 172 2 gusting 4 3.9
2019-Dec-12 02:56 171 1 gusting 4 3.9
2019-Dec-12 02:51 178 1 gusting 4 3.9
2019-Dec-12 02:46 180 1 gusting 2 3.9
2019-Dec-12 02:41 180 1 gusting 2 3.9
2019-Dec-12 02:36 180 1 gusting 4 3.9
2019-Dec-12 02:26 177 1 gusting 4 4.4
2019-Dec-12 02:21 173 1 gusting 4 4.4
2019-Dec-12 02:11 173 1 gusting 5 4.4
2019-Dec-12 02:06 173 1 gusting 5 4.4
2019-Dec-12 02:01 173 1 gusting 5 4.4
2019-Dec-12 01:56 174 1 gusting 4 4.4
2019-Dec-12 01:51 168 1 gusting 4 3.9
2019-Dec-12 01:46 164 1 gusting 4 3.9
2019-Dec-12 01:41 161 1 gusting 4 3.9
2019-Dec-12 01:36 165 1 gusting 4 3.9
2019-Dec-12 01:26 174 1 gusting 4 3.9
2019-Dec-12 01:21 173 1 gusting 4 3.9
2019-Dec-12 01:16 178 1 gusting 4 3.9
2019-Dec-12 01:11 178 1 gusting 4 3.9
2019-Dec-12 01:06 179 2 gusting 4 3.9
2019-Dec-12 00:56 178 2 gusting 4 3.9
2019-Dec-12 00:51 168 3 gusting 4 3.9
2019-Dec-12 00:46 166 4 gusting 4 3.9
2019-Dec-12 00:41 166 4 gusting 5 3.9
2019-Dec-12 00:36 166 4 gusting 6 3.9
2019-Dec-12 00:26 166 2 gusting 6 3.9
2019-Dec-12 00:21 171 2 gusting 5 3.9
2019-Dec-12 00:11 158 1 gusting 5 3.9
2019-Dec-12 00:06 163 1 gusting 5 3.9
2019-Dec-11 23:56 162 1 gusting 5 3.9
2019-Dec-11 23:51 160 1 gusting 5 3.9
2019-Dec-11 23:46 158 1 gusting 5 3.9
2019-Dec-11 23:41 157 1 gusting 5 3.9
2019-Dec-11 23:36 157 1 gusting 4 3.9
2019-Dec-11 23:26 157 0 gusting 2 3.9
2019-Dec-11 23:21 157 1 gusting 4 3.9
2019-Dec-11 23:11 157 1 gusting 2 3.9
2019-Dec-11 23:06 157 1 gusting 4 3.9
2019-Dec-11 22:56 157 1 gusting 4 3.9
2019-Dec-11 22:51 157 1 gusting 2 3.9
2019-Dec-11 22:46 157 1 gusting 2 3.9
2019-Dec-11 22:41 157 1 gusting 2 3.9
2019-Dec-11 22:36 158 1 gusting 2 3.9
2019-Dec-11 22:26 165 1 gusting 4 3.9
2019-Dec-11 22:21 165 1 gusting 4 4.4
2019-Dec-11 22:16 165 1 gusting 4 4.4
2019-Dec-11 22:11 165 2 gusting 4 4.4
2019-Dec-11 22:06 165 2 gusting 6 4.4
2019-Dec-11 21:56 165 2 gusting 6 4.4
2019-Dec-11 21:51 154 2 gusting 5 4.4
2019-Dec-11 21:46 153 2 gusting 5 4.4
2019-Dec-11 21:41 155 3 gusting 5 4.4
2019-Dec-11 21:36 165 4 gusting 6 3.9
2019-Dec-11 21:26 174 3 gusting 6 3.9
2019-Dec-11 21:21 166 2 gusting 6 3.9
2019-Dec-11 21:16 165 2 gusting 6 3.9
2019-Dec-11 21:11 167 2 gusting 6 3.9
2019-Dec-11 21:06 171 1 gusting 4 3.9
2019-Dec-11 20:56 171 0 gusting 2 3.9
2019-Dec-11 20:51 171 1 gusting 4 3.9
2019-Dec-11 20:41 171 2 gusting 5 3.9
2019-Dec-11 20:36 171 2 gusting 5 3.9
2019-Dec-11 20:26 171 2 gusting 5 3.9
2019-Dec-11 20:21 171 2 gusting 5 3.9
2019-Dec-11 20:11 170 2 gusting 4 3.9
2019-Dec-11 20:06 170 2 gusting 4 3.9
2019-Dec-11 19:56 171 1 gusting 4 3.9
2019-Dec-11 19:51 171 1 gusting 4 3.9
2019-Dec-11 19:41 171 1 gusting 2 4.4
2019-Dec-11 19:36 171 1 gusting 2 4.4
2019-Dec-11 19:26 171 2 gusting 4 4.4
2019-Dec-11 19:21 171 2 gusting 5 5.0
2019-Dec-11 19:11 169 2 gusting 5 5.0
2019-Dec-11 19:06 169 2 gusting 6 5.0
2019-Dec-11 18:56 165 2 gusting 6 5.0
2019-Dec-11 18:51 172 2 gusting 5 5.0
2019-Dec-11 18:41 164 2 gusting 5 5.6
2019-Dec-11 18:36 163 2 gusting 5 5.6
2019-Dec-11 18:26 165 3 gusting 5 5.6
2019-Dec-11 18:21 170 4 gusting 6 5.6
2019-Dec-11 18:17 173 5 gusting 6 5.6
2019-Dec-11 18:11 173 5 gusting 6 5.6
2019-Dec-11 18:06 171 5 gusting 6 5.6
2019-Dec-11 17:56 169 4 gusting 6 5.6
2019-Dec-11 17:51 167 4 gusting 6 5.6
2019-Dec-11 17:42 166 4 gusting 5 5.6
2019-Dec-11 17:36 166 3 gusting 5 5.6
2019-Dec-11 17:26 173 3 gusting 6 5.6
2019-Dec-11 17:21 168 4 gusting 6 5.6
2019-Dec-11 17:11 170 2 gusting 6 5.6
2019-Dec-11 17:06 176 2 gusting 6 5.6
2019-Dec-11 16:56 174 3 gusting 5 5.6
2019-Dec-11 16:51 172 4 gusting 6 5.6
2019-Dec-11 16:41 168 2 gusting 6 5.6
2019-Dec-11 16:36 166 2 gusting 6 5.6
2019-Dec-11 16:26 167 2 gusting 6 5.6
2019-Dec-11 16:21 171 2 gusting 6 5.6
2019-Dec-11 16:17 173 2 gusting 6 6.1
2019-Dec-11 16:11 177 3 gusting 6 6.1
2019-Dec-11 16:06 184 4 gusting 7 6.1
2019-Dec-11 15:56 189 4 gusting 7 6.1
2019-Dec-11 15:51 178 4 gusting 6 6.1
2019-Dec-11 15:41 193 4 gusting 6 6.1
2019-Dec-11 15:36 194 3 gusting 6 6.1
2019-Dec-11 15:26 189 2 gusting 5 6.1
2019-Dec-11 15:21 195 3 gusting 7 6.1
2019-Dec-11 15:11 193 2 gusting 6 6.1
2019-Dec-11 15:06 188 2 gusting 6 6.1
2019-Dec-11 14:56 199 2 gusting 5 6.1
2019-Dec-11 14:51 189 2 gusting 6 6.1
2019-Dec-11 14:41 190 2 gusting 6 6.1
2019-Dec-11 14:36 192 3 gusting 6 6.1
2019-Dec-11 14:26 204 3 gusting 6 6.1
2019-Dec-11 14:21 195 2 gusting 6 6.1
2019-Dec-11 14:11 201 2 gusting 6 6.7
2019-Dec-11 14:06 200 2 gusting 6 6.7
2019-Dec-11 13:56 192 4 gusting 7 6.7
2019-Dec-11 13:51 190 5 gusting 7 6.7
2019-Dec-11 13:41 209 3 gusting 7 6.7
2019-Dec-11 13:36 209 4 gusting 7 6.7
2019-Dec-11 13:26 201 5 gusting 8 6.7
2019-Dec-11 13:21 196 5 gusting 8 6.7
2019-Dec-11 13:11 191 4 gusting 7 6.7
2019-Dec-11 13:06 199 4 gusting 7 6.7
2019-Dec-11 12:56 212 4 gusting 7 6.7
2019-Dec-11 12:51 212 4 gusting 10 6.7
2019-Dec-11 12:41 220 4 gusting 10 6.7
2019-Dec-11 12:36 221 4 gusting 10 6.7
2019-Dec-11 12:26 216 4 gusting 7 6.7
2019-Dec-11 12:21 203 5 gusting 10 6.7
2019-Dec-11 12:11 214 5 gusting 11 6.7
2019-Dec-11 12:06 213 5 gusting 11 6.7